STARLINK-35080, 65437

Orbit data source: Space-Track

STARLINK-35080, 65437 is a payload satellite owned by SpaceX/Seattle (US) in SSO that was launched on Wed, 03 Sep 2025 UTC via an FALCON 9 launch vehicle from the Air Force Western Test Range (AFWTR). Payload-class satellites include a variety of spacecraft equipped with specific instruments for various scientific and technological missions. These include communications satellites like Starlink; space stations such as the ISS; scientific satellites like the Hubble; Earth observation satellites from companies like Planet Labs, Umbra, and HawkEye 360; GPS; miniature CubeSats for education and research; and military/defense satellites.

Loading next visibility...
Identifier
65437, 2025-194D
Orbit
SSO
Country
Flag of USUS
Related business
Manufacturer
SpaceX/Seattle
Mission
Operational Commercial Communications
Bus & Motor
STARLINK V2MO, Unknown motor
Mass
575 kg wet, ~530 kg dry
Launch date (UTC)
2025-09-03 (10 months ago)
Launch vehicle
FALCON 9
Launch site
Air Force Western Test Range (AFWTR)
Object type
Payload
Rocket body
Debris
Shape & HBR
Box + 2 Pan, 17.7 m
Radar Cross Section
36.964 m², Large (>1 m²)

Expand to show TLE details & history
Last TLE update: 13 hours ago

TLE from 13 hours ago
0 STARLINK-35080
1 65437U 25194D   26171.32510733  .00005690  00000-0  39785-3 0  9992
2 65437  97.3432  24.4948 0002293  85.0295 275.1194 15.05661798 45096
Epoch: 2026-06-20T07:48Z
TLE epoch observation values (Epoch: 2026-06-20T07:48:09.273Z)
Latitude
-0.00004°
Longitude
-1.08519°
Altitude
552.406 km
Speed
7.586 km/s
True Right ascension
01h 37m 58s
True Declination
0° 00' 00"
Sunlit
Object was in daylight at epoch
Visualization orbit readout
Latitude
Unknown
Longitude
Unknown
Altitude
Unknown
Speed
Unknown
Apparent Right ascension
Unknown
Apparent Declination
Unknown
Sunlit
N/A
Visualization observer readout
Local Sidereal Time
07:21:49
Azimuth
Unknown
Elevation
Unknown
Doppler factor
Unknown
Orbital elements
Apogee altitude
548.045 km
Perigee altitude
544.869 km
Semi-major axis
6,924.594 km
Eccentricity
0.00023
Inclination
97.3432°
RAAN
24.4948°
Arg. of periapsis
85.0295°
True anomaly
275.09323°
Mean anomaly
275.1194°
Eccentric anomaly
275.10631°
Mean motion
3.76662 °/min
Orbital period
95.58 mins
BSTAR
0.00039785
Loading maneuver chart data...
Computing Atmospheric mass density...
Loading historical data...
Loading historical data...
Loading historical data...
Loading historical data...
Loading historical data...
Loading historical data...
Loading historical data...

Documentation

Showing up to 5 results
|